LAN123 SCFA-SCEL

Flight info

Callsign LAN123
Flight time 1h 34m
Altitude 35000
Route UKATO3A UKATO UQ803 SIMOK SIMOK7B
Aircraft A321/M-SDE3FGHIRWY/LB1

Departure

Time 2026-04-26 19:10
Airport Andrés Sabella Gálvez International Airport (SCFA)

Arrival

Time 2026-04-26 20:45
Airport Comodoro Arturo Merino Benítez International Airport (SCEL)
Time Latitude Longitude Altitude Speed Heading
2026-04-26 18:46 -23.44920 -70.44172 390 ft 0 kts 94°
2026-04-26 18:55 -23.44920 -70.44175 390 ft 2 kts 94°
2026-04-26 18:55 -23.44918 -70.44197 390 ft 3 kts 94°
2026-04-26 18:56 -23.44917 -70.44219 390 ft 3 kts 93°
2026-04-26 18:56 -23.44915 -70.44238 390 ft 3 kts 108°
2026-04-26 18:56 -23.44908 -70.44254 391 ft 3 kts 150°
2026-04-26 18:56 -23.44891 -70.44259 391 ft 3 kts 186°
2026-04-26 18:57 -23.44871 -70.44256 392 ft 3 kts 189°
2026-04-26 18:57 -23.44863 -70.44254 393 ft 0 kts 186°
2026-04-26 18:59 -23.44868 -70.44255 392 ft 2 kts 186°
2026-04-26 18:59 -23.44890 -70.44258 391 ft 5 kts 186°
2026-04-26 19:00 -23.44931 -70.44262 390 ft 7 kts 186°
2026-04-26 19:00 -23.44975 -70.44274 387 ft 6 kts 213°
2026-04-26 19:00 -23.44987 -70.44315 387 ft 6 kts 270°
2026-04-26 19:00 -23.44982 -70.44352 387 ft 4 kts 284°
2026-04-26 19:01 -23.44971 -70.44367 387 ft 1 kts 318°
2026-04-26 19:01 -23.44949 -70.44373 388 ft 6 kts 356°
2026-04-26 19:01 -23.44894 -70.44368 391 ft 10 kts
2026-04-26 19:01 -23.44812 -70.44358 393 ft 13 kts
2026-04-26 19:02 -23.44728 -70.44348 396 ft 13 kts
2026-04-26 19:02 -23.44628 -70.44336 401 ft 14 kts
2026-04-26 19:02 -23.44540 -70.44326 407 ft 13 kts
2026-04-26 19:02 -23.44473 -70.44317 410 ft 15 kts
2026-04-26 19:03 -23.44338 -70.44300 416 ft 15 kts
2026-04-26 19:03 -23.44232 -70.44287 413 ft 15 kts
2026-04-26 19:03 -23.44141 -70.44275 414 ft 12 kts
2026-04-26 19:03 -23.44056 -70.44265 422 ft 12 kts
2026-04-26 19:04 -23.43958 -70.44253 431 ft 14 kts
2026-04-26 19:04 -23.43874 -70.44243 428 ft 12 kts
2026-04-26 19:04 -23.43789 -70.44233 430 ft 13 kts
2026-04-26 19:04 -23.43687 -70.44220 445 ft 15 kts
2026-04-26 19:05 -23.43512 -70.44199 454 ft 10 kts
2026-04-26 19:05 -23.43457 -70.44192 457 ft 7 kts
2026-04-26 19:05 -23.43411 -70.44187 459 ft 5 kts
2026-04-26 19:06 -23.43380 -70.44191 460 ft 5 kts 342°
2026-04-26 19:06 -23.43351 -70.44210 462 ft 5 kts 325°
2026-04-26 19:06 -23.43326 -70.44231 463 ft 3 kts 322°
2026-04-26 19:06 -23.43319 -70.44236 463 ft 0 kts 322°
2026-04-26 19:07 -23.43313 -70.44242 463 ft 2 kts 322°
2026-04-26 19:07 -23.43293 -70.44258 462 ft 5 kts 322°
2026-04-26 19:08 -23.43276 -70.44282 464 ft 5 kts 291°
2026-04-26 19:08 -23.43282 -70.44316 464 ft 5 kts 244°
2026-04-26 19:08 -23.43311 -70.44354 462 ft 7 kts 223°
2026-04-26 19:08 -23.43355 -70.44374 460 ft 2 kts 188°
2026-04-26 19:09 -23.43356 -70.44374 460 ft 0 kts 187°
2026-04-26 19:09 -23.43357 -70.44374 460 ft 0 kts 187°
2026-04-26 19:09 -23.43407 -70.44381 457 ft 19 kts 186°
2026-04-26 19:10 -23.43793 -70.44428 432 ft 91 kts 186°
2026-04-26 19:10 -23.44623 -70.44527 401 ft 147 kts 186°
2026-04-26 19:10 -23.45741 -70.44660 721 ft 162 kts 186°
2026-04-26 19:10 -23.46851 -70.44776 1417 ft 159 kts 186°
2026-04-26 19:11 -23.47963 -70.44836 1895 ft 163 kts 179°
2026-04-26 19:11 -23.49115 -70.44666 2338 ft 170 kts 171°
2026-04-26 19:11 -23.50298 -70.44425 2695 ft 176 kts 170°
2026-04-26 19:11 -23.51524 -70.44175 3051 ft 182 kts 169°
2026-04-26 19:12 -23.52800 -70.43922 3368 ft 190 kts 169°
2026-04-26 19:12 -23.54125 -70.43657 3674 ft 197 kts 169°
2026-04-26 19:12 -23.55505 -70.43376 3934 ft 208 kts 170°
2026-04-26 19:12 -23.56960 -70.43082 4216 ft 218 kts 170°
2026-04-26 19:13 -23.58500 -70.42772 4539 ft 226 kts 171°
2026-04-26 19:13 -23.60064 -70.42458 4845 ft 232 kts 171°
2026-04-26 19:13 -23.61670 -70.42141 5153 ft 237 kts 171°
2026-04-26 19:13 -23.63336 -70.41813 5407 ft 249 kts 171°
2026-04-26 19:14 -23.64482 -70.41586 5593 ft 257 kts 171°
2026-04-26 19:14 -23.66307 -70.41216 5852 ft 274 kts 171°
2026-04-26 19:14 -23.68209 -70.40825 6360 ft 282 kts 170°
2026-04-26 19:14 -23.69492 -70.40558 6737 ft 285 kts 170°
2026-04-26 19:15 -23.72118 -70.40012 7488 ft 289 kts 170°
2026-04-26 19:15 -23.74102 -70.39604 8067 ft 291 kts 170°
2026-04-26 19:15 -23.76096 -70.39196 8640 ft 293 kts 170°
2026-04-26 19:15 -23.78104 -70.38787 9208 ft 295 kts 170°
2026-04-26 19:16 -23.80138 -70.38454 9758 ft 296 kts 177°
2026-04-26 19:16 -23.82205 -70.38377 10242 ft 300 kts 178°
2026-04-26 19:16 -23.84317 -70.38306 10591 ft 308 kts 179°
2026-04-26 19:16 -23.86488 -70.38238 10924 ft 317 kts 179°
2026-04-26 19:17 -23.88722 -70.38170 11265 ft 326 kts 179°
2026-04-26 19:17 -23.91017 -70.38098 11617 ft 334 kts 179°
2026-04-26 19:17 -23.93363 -70.38017 12006 ft 341 kts 179°
2026-04-26 19:17 -23.95759 -70.37930 12420 ft 347 kts 179°
2026-04-26 19:18 -23.98222 -70.37844 12849 ft 353 kts 179°
2026-04-26 19:18 -24.00664 -70.37761 13289 ft 357 kts 179°
2026-04-26 19:18 -24.03197 -70.37675 13752 ft 362 kts 179°
2026-04-26 19:18 -24.05726 -70.37599 14160 ft 366 kts 180°
2026-04-26 19:19 -24.08293 -70.37527 14566 ft 371 kts 180°
2026-04-26 19:19 -24.10893 -70.37442 14921 ft 377 kts 180°
2026-04-26 19:19 -24.13539 -70.37347 15195 ft 384 kts 180°
2026-04-26 19:19 -24.16227 -70.37248 15524 ft 389 kts 180°
2026-04-26 19:20 -24.18945 -70.37159 15970 ft 390 kts 180°
2026-04-26 19:20 -24.20744 -70.37103 16308 ft 390 kts 181°
2026-04-26 19:20 -24.24382 -70.36986 16895 ft 393 kts 181°
2026-04-26 19:20 -24.27126 -70.36892 17330 ft 394 kts 181°
2026-04-26 19:21 -24.29865 -70.36799 17778 ft 395 kts 181°
2026-04-26 19:21 -24.32625 -70.36706 18214 ft 397 kts 181°
2026-04-26 19:21 -24.35387 -70.36613 18583 ft 398 kts 181°
2026-04-26 19:21 -24.38167 -70.36522 18918 ft 401 kts 181°
2026-04-26 19:22 -24.40970 -70.36429 19253 ft 404 kts 182°
2026-04-26 19:22 -24.43793 -70.36334 19575 ft 407 kts 182°
2026-04-26 19:22 -24.46638 -70.36240 19888 ft 410 kts 182°
2026-04-26 19:22 -24.49498 -70.36147 20209 ft 413 kts 182°
2026-04-26 19:23 -24.52384 -70.36051 20523 ft 416 kts 182°
2026-04-26 19:23 -24.55282 -70.35955 20825 ft 418 kts 183°
2026-04-26 19:23 -24.58206 -70.35857 21126 ft 421 kts 183°
2026-04-26 19:23 -24.61150 -70.35758 21385 ft 425 kts 183°
2026-04-26 19:24 -24.64110 -70.35659 21691 ft 427 kts 184°
2026-04-26 19:24 -24.67091 -70.35559 22008 ft 429 kts 184°
2026-04-26 19:24 -24.73099 -70.35351 22636 ft 435 kts 184°
2026-04-26 19:25 -24.76126 -70.35251 22935 ft 437 kts 184°
2026-04-26 19:25 -24.78187 -70.35186 23127 ft 439 kts 185°
2026-04-26 19:25 -24.82246 -70.35057 23470 ft 443 kts 185°
2026-04-26 19:25 -24.85330 -70.34951 23725 ft 445 kts 185°
2026-04-26 19:26 -24.88431 -70.34842 23959 ft 447 kts 185°
2026-04-26 19:26 -24.91548 -70.34736 24192 ft 449 kts 185°
2026-04-26 19:26 -24.94678 -70.34632 24477 ft 450 kts 185°
2026-04-26 19:26 -24.97853 -70.34526 24764 ft 451 kts 185°
2026-04-26 19:27 -25.00991 -70.34424 25031 ft 452 kts 185°
2026-04-26 19:27 -25.04105 -70.34321 25283 ft 454 kts 185°
2026-04-26 19:27 -25.07303 -70.34213 25527 ft 455 kts 185°
2026-04-26 19:27 -25.10480 -70.34105 25777 ft 457 kts 185°
2026-04-26 19:28 -25.13661 -70.33998 26035 ft 459 kts 185°
2026-04-26 19:28 -25.16861 -70.33891 26278 ft 460 kts 185°
2026-04-26 19:28 -25.20068 -70.33782 26513 ft 462 kts 186°
2026-04-26 19:28 -25.23288 -70.33670 26731 ft 464 kts 186°
2026-04-26 19:29 -25.26517 -70.33559 26951 ft 465 kts 186°
2026-04-26 19:29 -25.29756 -70.33450 27189 ft 467 kts 186°
2026-04-26 19:29 -25.33009 -70.33344 27447 ft 468 kts 186°
2026-04-26 19:29 -25.36269 -70.33234 27683 ft 470 kts 186°
2026-04-26 19:30 -25.39549 -70.33122 27925 ft 472 kts 186°
2026-04-26 19:30 -25.42832 -70.33013 28156 ft 474 kts 186°
2026-04-26 19:30 -25.46132 -70.32906 28462 ft 473 kts 186°
2026-04-26 19:30 -25.48305 -70.32834 28682 ft 472 kts 186°
2026-04-26 19:31 -25.52696 -70.32682 29133 ft 472 kts 186°
2026-04-26 19:31 -25.55975 -70.32566 29446 ft 471 kts 186°
2026-04-26 19:31 -25.59248 -70.32452 29770 ft 470 kts 187°
2026-04-26 19:31 -25.62518 -70.32341 30085 ft 470 kts 187°
2026-04-26 19:32 -25.65781 -70.32229 30355 ft 469 kts 187°
2026-04-26 19:32 -25.69041 -70.32117 30647 ft 468 kts 187°
2026-04-26 19:32 -25.72290 -70.32002 30945 ft 467 kts 187°
2026-04-26 19:32 -25.75529 -70.31891 31239 ft 465 kts 187°
2026-04-26 19:33 -25.78761 -70.31782 31539 ft 464 kts 187°
2026-04-26 19:33 -25.81983 -70.31674 31836 ft 462 kts 187°
2026-04-26 19:33 -25.85193 -70.31570 32133 ft 461 kts 187°
2026-04-26 19:33 -25.88395 -70.31466 32425 ft 460 kts 188°
2026-04-26 19:34 -25.91593 -70.31355 32730 ft 459 kts 188°
2026-04-26 19:34 -25.94785 -70.31241 33014 ft 458 kts 188°
2026-04-26 19:34 -25.97965 -70.31125 33289 ft 457 kts 188°
2026-04-26 19:34 -26.01177 -70.31010 33579 ft 456 kts 188°
2026-04-26 19:35 -26.04343 -70.30902 33859 ft 455 kts 188°
2026-04-26 19:35 -26.07489 -70.30889 34102 ft 447 kts 194°
2026-04-26 19:35 -26.10570 -70.31170 34328 ft 444 kts 195°
2026-04-26 19:35 -26.13647 -70.31460 34547 ft 444 kts 195°
2026-04-26 19:36 -26.16722 -70.31746 34755 ft 444 kts 195°
2026-04-26 19:36 -26.18756 -70.31933 34900 ft 443 kts 195°
2026-04-26 19:36 -26.22870 -70.32310 35010 ft 442 kts 195°
2026-04-26 19:36 -26.25930 -70.32590 35017 ft 441 kts 195°
2026-04-26 19:37 -26.32047 -70.33151 35020 ft 440 kts 195°
2026-04-26 19:37 -26.38149 -70.33711 35018 ft 440 kts 195°
2026-04-26 19:38 -26.44249 -70.34272 35018 ft 440 kts 195°
2026-04-26 19:38 -26.50344 -70.34836 35022 ft 439 kts 195°
2026-04-26 19:39 -26.56440 -70.35400 35026 ft 440 kts 196°
2026-04-26 19:39 -26.62540 -70.35965 35031 ft 439 kts 196°
2026-04-26 19:40 -26.68629 -70.36529 35036 ft 439 kts 196°
2026-04-26 19:40 -26.74719 -70.37085 35035 ft 439 kts 196°
2026-04-26 19:41 -26.80812 -70.37644 35030 ft 439 kts 196°
2026-04-26 19:41 -26.84883 -70.38028 35034 ft 439 kts 196°
2026-04-26 19:42 -26.93027 -70.38786 35039 ft 439 kts 196°
2026-04-26 19:42 -26.99113 -70.39352 35045 ft 438 kts 196°
2026-04-26 19:43 -27.05190 -70.39916 35045 ft 438 kts 196°
2026-04-26 19:43 -27.11262 -70.40482 35050 ft 438 kts 197°
2026-04-26 19:44 -27.17330 -70.41048 35052 ft 437 kts 197°
2026-04-26 19:44 -27.23390 -70.41618 35051 ft 437 kts 197°
2026-04-26 19:45 -27.29446 -70.42186 35056 ft 437 kts 197°
2026-04-26 19:45 -27.35507 -70.42751 35057 ft 436 kts 197°
2026-04-26 19:46 -27.41553 -70.43319 35057 ft 436 kts 197°
2026-04-26 19:46 -27.47479 -70.43882 35055 ft 435 kts 197°
2026-04-26 19:47 -27.51520 -70.44269 35055 ft 435 kts 197°
2026-04-26 19:47 -27.59551 -70.45019 35058 ft 435 kts 197°
2026-04-26 19:48 -27.64606 -70.45491 35052 ft 435 kts 197°
2026-04-26 19:48 -27.70637 -70.46060 35052 ft 434 kts 197°
2026-04-26 19:49 -27.76661 -70.46634 35056 ft 434 kts 197°
2026-04-26 19:49 -27.82674 -70.47208 35063 ft 434 kts 197°
2026-04-26 19:50 -27.88683 -70.47779 35059 ft 433 kts 198°
2026-04-26 19:50 -27.94688 -70.48338 35064 ft 433 kts 198°
2026-04-26 19:51 -28.00685 -70.48899 35064 ft 432 kts 198°
2026-04-26 19:51 -28.06673 -70.49467 35061 ft 432 kts 198°
2026-04-26 19:52 -28.12658 -70.50037 35063 ft 431 kts 198°
2026-04-26 19:52 -28.18631 -70.50612 35064 ft 431 kts 198°
2026-04-26 19:53 -28.24602 -70.51190 35064 ft 430 kts 198°
2026-04-26 19:53 -28.30560 -70.51759 35065 ft 430 kts 198°
2026-04-26 19:54 -28.36521 -70.52317 35067 ft 429 kts 198°
2026-04-26 19:54 -28.42512 -70.52886 35064 ft 429 kts 198°
2026-04-26 19:55 -28.48445 -70.53453 35055 ft 428 kts 198°
2026-04-26 19:55 -28.54385 -70.54025 35059 ft 428 kts 198°
2026-04-26 19:56 -28.60324 -70.54579 35056 ft 429 kts 198°
2026-04-26 19:56 -28.66265 -70.55126 35052 ft 428 kts 198°
2026-04-26 19:57 -28.72191 -70.55681 35045 ft 426 kts 198°
2026-04-26 19:57 -28.78099 -70.56244 35048 ft 427 kts 198°
2026-04-26 19:58 -28.84010 -70.56799 35034 ft 426 kts 198°
2026-04-26 19:58 -28.89940 -70.57352 35038 ft 429 kts 198°
2026-04-26 19:59 -28.95881 -70.57905 35042 ft 428 kts 198°
2026-04-26 19:59 -29.01814 -70.58474 35038 ft 427 kts 198°
2026-04-26 20:00 -29.07745 -70.59063 35054 ft 429 kts 198°
2026-04-26 20:00 -29.13699 -70.59641 35066 ft 430 kts 198°
2026-04-26 20:01 -29.19662 -70.60216 35067 ft 429 kts 198°
2026-04-26 20:01 -29.25599 -70.60796 35067 ft 429 kts 198°
2026-04-26 20:02 -29.31564 -70.61385 35083 ft 431 kts 198°
2026-04-26 20:02 -29.36564 -70.61866 35081 ft 431 kts 198°
2026-04-26 20:03 -29.43531 -70.62533 35090 ft 430 kts 198°
2026-04-26 20:03 -29.49504 -70.63109 35088 ft 431 kts 198°
2026-04-26 20:04 -29.55466 -70.63700 35086 ft 430 kts 198°
2026-04-26 20:04 -29.61435 -70.64286 35093 ft 430 kts 197°
2026-04-26 20:05 -29.67403 -70.64869 35082 ft 430 kts 197°
2026-04-26 20:05 -29.73373 -70.65458 35076 ft 431 kts 197°
2026-04-26 20:06 -29.79354 -70.66044 35069 ft 431 kts 197°
2026-04-26 20:06 -29.85339 -70.66627 35067 ft 432 kts 197°
2026-04-26 20:07 -29.91321 -70.67219 35057 ft 431 kts 197°
2026-04-26 20:07 -29.97305 -70.67806 35055 ft 432 kts 197°
2026-04-26 20:08 -30.03302 -70.68391 35052 ft 432 kts 196°
2026-04-26 20:08 -30.09295 -70.68974 35043 ft 433 kts 196°
2026-04-26 20:09 -30.15294 -70.69569 35056 ft 432 kts 196°
2026-04-26 20:09 -30.21291 -70.70168 35050 ft 432 kts 196°
2026-04-26 20:10 -30.27331 -70.70770 35054 ft 433 kts 196°
2026-04-26 20:10 -30.33340 -70.71365 35064 ft 434 kts 195°
2026-04-26 20:11 -30.39354 -70.71959 35066 ft 434 kts 195°
2026-04-26 20:12 -30.48370 -70.72848 35066 ft 434 kts 195°
2026-04-26 20:12 -30.54391 -70.73453 35061 ft 434 kts 195°
2026-04-26 20:13 -30.60405 -70.74061 35053 ft 434 kts 195°
2026-04-26 20:13 -30.66427 -70.74647 35055 ft 435 kts 194°
2026-04-26 20:14 -30.72442 -70.75228 35035 ft 434 kts 194°
2026-04-26 20:14 -30.78471 -70.75807 35044 ft 435 kts 194°
2026-04-26 20:15 -30.84512 -70.76395 35052 ft 436 kts 194°
2026-04-26 20:15 -30.90555 -70.76982 35058 ft 436 kts 194°
2026-04-26 20:16 -30.96600 -70.77565 35057 ft 435 kts 193°
2026-04-26 20:16 -31.02629 -70.78152 35048 ft 434 kts 193°
2026-04-26 20:17 -31.08694 -70.78753 35068 ft 436 kts 194°
2026-04-26 20:17 -31.14737 -70.79349 35072 ft 435 kts 194°
2026-04-26 20:18 -31.20778 -70.79936 35084 ft 436 kts 193°
2026-04-26 20:18 -31.26820 -70.80525 34709 ft 435 kts 193°
2026-04-26 20:18 -31.29831 -70.80820 34313 ft 434 kts 193°
2026-04-26 20:19 -31.32840 -70.81117 33907 ft 435 kts 192°
2026-04-26 20:19 -31.35855 -70.81416 33461 ft 436 kts 192°
2026-04-26 20:19 -31.38881 -70.81718 33015 ft 436 kts 192°
2026-04-26 20:19 -31.41908 -70.82013 32575 ft 437 kts 191°
2026-04-26 20:20 -31.43915 -70.82209 32283 ft 436 kts 191°
2026-04-26 20:20 -31.46928 -70.82505 31855 ft 434 kts 191°
2026-04-26 20:20 -31.49921 -70.82800 31432 ft 429 kts 191°
2026-04-26 20:20 -31.52890 -70.83093 31008 ft 426 kts 191°
2026-04-26 20:21 -31.55833 -70.83383 30607 ft 424 kts 191°
2026-04-26 20:21 -31.58759 -70.83670 30190 ft 420 kts 191°
2026-04-26 20:21 -31.61660 -70.83954 29710 ft 417 kts 190°
2026-04-26 20:21 -31.64528 -70.84235 29239 ft 413 kts 190°
2026-04-26 20:22 -31.67436 -70.84521 28770 ft 411 kts 190°
2026-04-26 20:22 -31.70238 -70.84796 28326 ft 408 kts 190°
2026-04-26 20:22 -31.73095 -70.85078 27870 ft 405 kts 189°
2026-04-26 20:22 -31.75906 -70.85265 27422 ft 406 kts 184°
2026-04-26 20:23 -31.78727 -70.85180 26987 ft 404 kts 183°
2026-04-26 20:23 -31.81529 -70.85085 26563 ft 402 kts 183°
2026-04-26 20:23 -31.84315 -70.84986 26137 ft 399 kts 183°
2026-04-26 20:23 -31.87083 -70.84885 25721 ft 397 kts 182°
2026-04-26 20:24 -31.89840 -70.84785 25312 ft 395 kts 182°
2026-04-26 20:24 -31.92580 -70.84685 24911 ft 392 kts 182°
2026-04-26 20:24 -31.95298 -70.84584 24511 ft 390 kts 182°
2026-04-26 20:24 -31.98010 -70.84480 24122 ft 388 kts 181°
2026-04-26 20:25 -32.00703 -70.84379 23730 ft 386 kts 181°
2026-04-26 20:25 -32.02478 -70.84316 23451 ft 385 kts 181°
2026-04-26 20:25 -32.06042 -70.84194 22834 ft 380 kts 182°
2026-04-26 20:25 -32.08673 -70.84104 22384 ft 378 kts 181°
2026-04-26 20:26 -32.11296 -70.84012 21951 ft 375 kts 181°
2026-04-26 20:26 -32.13893 -70.83920 21516 ft 372 kts 181°
2026-04-26 20:26 -32.16472 -70.83828 21089 ft 369 kts 181°
2026-04-26 20:26 -32.19026 -70.83736 20665 ft 366 kts 181°
2026-04-26 20:27 -32.21566 -70.83647 20251 ft 364 kts 181°
2026-04-26 20:27 -32.24090 -70.83561 19842 ft 361 kts 181°
2026-04-26 20:27 -32.26595 -70.83472 19428 ft 360 kts 181°
2026-04-26 20:27 -32.29084 -70.83380 19024 ft 357 kts 181°
2026-04-26 20:28 -32.31562 -70.83287 18641 ft 355 kts 181°
2026-04-26 20:28 -32.34010 -70.83192 18260 ft 349 kts 181°
2026-04-26 20:28 -32.36429 -70.83103 17833 ft 346 kts 181°
2026-04-26 20:28 -32.38821 -70.83018 17414 ft 341 kts 181°
2026-04-26 20:29 -32.41172 -70.82934 17002 ft 335 kts 181°
2026-04-26 20:29 -32.43478 -70.82853 16599 ft 329 kts 181°
2026-04-26 20:29 -32.45745 -70.82772 16223 ft 323 kts 180°
2026-04-26 20:29 -32.47968 -70.82687 15853 ft 318 kts 180°
2026-04-26 20:30 -32.50170 -70.82604 15481 ft 315 kts 180°
2026-04-26 20:30 -32.52352 -70.82524 15114 ft 312 kts 180°
2026-04-26 20:30 -32.54507 -70.82448 14760 ft 308 kts 180°
2026-04-26 20:30 -32.56630 -70.82372 14426 ft 302 kts 180°
2026-04-26 20:31 -32.58738 -70.82297 14094 ft 297 kts 180°
2026-04-26 20:31 -32.60793 -70.82225 13760 ft 293 kts 180°
2026-04-26 20:31 -32.62819 -70.82157 13390 ft 290 kts 179°
2026-04-26 20:31 -32.64795 -70.82090 13032 ft 286 kts 179°
2026-04-26 20:32 -32.66794 -70.82019 12670 ft 282 kts 179°
2026-04-26 20:32 -32.68735 -70.81949 12322 ft 277 kts 179°
2026-04-26 20:32 -32.70651 -70.81877 11995 ft 273 kts 179°
2026-04-26 20:32 -32.72540 -70.81810 11675 ft 270 kts 179°
2026-04-26 20:33 -32.74411 -70.81745 11356 ft 268 kts 179°
2026-04-26 20:33 -32.76256 -70.81678 11072 ft 261 kts 179°
2026-04-26 20:33 -32.78036 -70.81615 10791 ft 252 kts 178°
2026-04-26 20:33 -32.79714 -70.81555 10510 ft 246 kts 178°
2026-04-26 20:34 -32.81411 -70.81495 10247 ft 241 kts 178°
2026-04-26 20:34 -32.83072 -70.81439 10008 ft 237 kts 177°
2026-04-26 20:34 -32.84707 -70.81382 9738 ft 232 kts 178°
2026-04-26 20:34 -32.86309 -70.81323 9521 ft 229 kts 177°
2026-04-26 20:35 -32.87895 -70.81264 9287 ft 227 kts 177°
2026-04-26 20:35 -32.89468 -70.81206 9074 ft 226 kts 177°
2026-04-26 20:35 -32.91036 -70.81148 8875 ft 225 kts 178°
2026-04-26 20:35 -32.92598 -70.81215 8666 ft 224 kts 187°
2026-04-26 20:36 -32.94147 -70.81462 8474 ft 224 kts 187°
2026-04-26 20:36 -32.95691 -70.81696 8282 ft 224 kts 186°
2026-04-26 20:36 -32.97232 -70.81926 8078 ft 223 kts 186°
2026-04-26 20:36 -32.98767 -70.82154 7887 ft 222 kts 186°
2026-04-26 20:37 -33.00295 -70.82373 7665 ft 221 kts 183°
2026-04-26 20:37 -33.01823 -70.82320 7452 ft 219 kts 176°
2026-04-26 20:37 -33.03345 -70.82231 7241 ft 219 kts 176°
2026-04-26 20:37 -33.04861 -70.82149 7029 ft 216 kts 177°
2026-04-26 20:38 -33.06343 -70.82069 6824 ft 211 kts 176°
2026-04-26 20:38 -33.07774 -70.81988 6651 ft 200 kts 176°
2026-04-26 20:38 -33.09139 -70.81910 6466 ft 194 kts 176°
2026-04-26 20:38 -33.10477 -70.81834 6264 ft 193 kts 176°
2026-04-26 20:39 -33.11816 -70.81756 6071 ft 192 kts 176°
2026-04-26 20:39 -33.12717 -70.81705 5939 ft 192 kts 176°
2026-04-26 20:39 -33.14476 -70.81604 5669 ft 190 kts 176°
2026-04-26 20:39 -33.15801 -70.81526 5473 ft 190 kts 176°
2026-04-26 20:40 -33.17120 -70.81448 5287 ft 190 kts 176°
2026-04-26 20:40 -33.18443 -70.81376 5090 ft 190 kts 177°
2026-04-26 20:40 -33.19774 -70.81304 4899 ft 187 kts 177°
2026-04-26 20:40 -33.21059 -70.81235 4681 ft 184 kts 177°
2026-04-26 20:41 -33.22328 -70.81167 4444 ft 180 kts 177°
2026-04-26 20:41 -33.23577 -70.81101 4213 ft 179 kts 177°
2026-04-26 20:41 -33.24819 -70.81034 3975 ft 178 kts 177°
2026-04-26 20:41 -33.26047 -70.80969 3743 ft 174 kts 177°
2026-04-26 20:42 -33.27217 -70.80906 3558 ft 161 kts 178°
2026-04-26 20:42 -33.28300 -70.80848 3347 ft 152 kts 178°
2026-04-26 20:42 -33.29343 -70.80793 3130 ft 149 kts 178°
2026-04-26 20:42 -33.30388 -70.80736 2925 ft 151 kts 178°
2026-04-26 20:43 -33.31446 -70.80680 2729 ft 154 kts 177°
2026-04-26 20:43 -33.32528 -70.80621 2505 ft 157 kts 176°
2026-04-26 20:43 -33.33619 -70.80560 2311 ft 157 kts 176°
2026-04-26 20:43 -33.34697 -70.80503 2094 ft 152 kts 176°
2026-04-26 20:44 -33.35734 -70.80452 1895 ft 146 kts 176°
2026-04-26 20:44 -33.36735 -70.80397 1697 ft 143 kts 177°
2026-04-26 20:44 -33.37712 -70.80345 1571 ft 133 kts 177°
2026-04-26 20:44 -33.38528 -70.80301 1560 ft 92 kts 177°
2026-04-26 20:45 -33.38993 -70.80278 1560 ft 42 kts 178°
2026-04-26 20:45 -33.39218 -70.80253 1559 ft 30 kts 166°
2026-04-26 20:45 -33.39370 -70.80171 1559 ft 21 kts 148°
2026-04-26 20:45 -33.39464 -70.80101 1559 ft 13 kts 147°
2026-04-26 20:46 -33.39509 -70.80055 1559 ft 5 kts 130°
2026-04-26 20:46 -33.39525 -70.80024 1559 ft 4 kts 116°
2026-04-26 20:46 -33.39531 -70.80002 1559 ft 2 kts 106°
2026-04-26 20:46 -33.39533 -70.79988 1559 ft 1 kts 99°
2026-04-26 20:47 -33.39534 -70.79970 1559 ft 3 kts 94°
2026-04-26 20:47 -33.39535 -70.79946 1559 ft 4 kts 89°
2026-04-26 20:47 -33.39534 -70.79908 1560 ft 3 kts 87°
2026-04-26 20:47 -33.39532 -70.79883 1560 ft 3 kts 86°
2026-04-26 20:48 -33.39531 -70.79855 1560 ft 4 kts 88°
2026-04-26 20:48 -33.39530 -70.79822 1560 ft 4 kts 88°
2026-04-26 20:48 -33.39529 -70.79784 1560 ft 5 kts 88°
2026-04-26 20:48 -33.39528 -70.79748 1560 ft 4 kts 87°
2026-04-26 20:49 -33.39527 -70.79721 1560 ft 3 kts 87°
2026-04-26 20:49 -33.39526 -70.79698 1560 ft 4 kts 87°
2026-04-26 20:49 -33.39524 -70.79661 1560 ft 4 kts 87°
2026-04-26 20:49 -33.39525 -70.79633 1560 ft 3 kts 99°
2026-04-26 20:50 -33.39535 -70.79617 1560 ft 2 kts 141°
2026-04-26 20:50 -33.39555 -70.79609 1560 ft 4 kts 166°
2026-04-26 20:50 -33.39580 -70.79608 1560 ft 3 kts 182°
2026-04-26 20:50 -33.39599 -70.79609 1560 ft 1 kts 181°
2026-04-26 20:51 -33.39600 -70.79609 1560 ft 0 kts 181°